Tracking 18844 objects as of 21-Nov-2017
HD Live streaming from Space Station
objects crossing your sky now

FENGYUN 1C DEB

Track FENGYUN 1C DEB now!
10-day predictions


NORAD ID: 29828
Int'l Code: 1999-025DW
Perigee: 845.5 km
Apogee: 941.3 km
Inclination: 99.0 °
Period: 102.7 minutes
Semi major axis: 7264 km
RCS: 0.0109 m2 (small)
Launch date: May 10, 1999
Source: People's Republic of China (PRC)
Launch site: Taiyaun Space Center, China (TSC)

Note: This is SATELLITE DEBRIS
aabbcc
Your satellite tracking list
Your tracking list is empty




NASA's NSSDC Master Catalog

Two Line Element Set (TLE):
1 29828U 99025DW  17325.46858097  .00000466  00000-0  32722-3 0  9994
2 29828  99.0427  27.6123 0065963  84.7322  31.7486 14.02176693554493
Source of the keplerian elements: AFSPC